Total_Precipitation_Accumulation
0.17 0.11 0.21 0.16 0.11 0.13 0.16 0.19 0.22 0.24 0.24 0.23 0.23 0.25 0.21 0.17 0.16 0.19 0.30 0.43 0.44 0.44 0.44 0.44 0.54 0.56 0.54 0.53 0.54 0.51 0.47 0.46 0.47 0.49 0.49 0.53 0.59 0.78 0.98 0.94 0.91 0.64 0.56
0.10 0.08 0.20 0.17 0.12 0.13 0.16 0.20 0.22 0.21 0.21 0.20 0.22 0.23 0.20 0.17 0.17 0.21 0.32 0.47 0.47 0.44 0.40 0.43 0.47 0.45 0.43 0.41 0.39 0.38 0.38 0.44 0.46 0.52 0.51 0.46 0.58 0.86 1.02 0.95 1.00 0.58 0.49
0.09 0.09 0.15 0.20 0.15 0.13 0.16 0.20 0.24 0.23 0.20 0.19 0.20 0.21 0.19 0.20 0.22 0.28 0.38 0.51 0.56 0.51 0.46 0.48 0.41 0.37 0.35 0.31 0.29 0.30 0.33 0.42 0.49 0.64 0.74 0.59 0.47 0.88 1.05 0.94 0.68 0.43 0.47
0.10 0.11 0.13 0.17 0.18 0.15 0.16 0.20 0.23 0.24 0.23 0.23 0.24 0.21 0.20 0.22 0.24 0.27 0.35 0.44 0.49 0.45 0.41 0.33 0.30 0.28 0.23 0.18 0.20 0.25 0.32 0.43 0.58 0.85 1.08 0.87 0.49 0.73 0.89 0.75 0.56 0.44 0.45
0.13 0.11 0.17 0.20 0.22 0.20 0.17 0.20 0.23 0.26 0.27 0.27 0.25 0.23 0.22 0.23 0.24 0.24 0.26 0.31 0.33 0.30 0.28 0.26 0.26 0.23 0.19 0.14 0.16 0.22 0.31 0.44 0.61 0.92 0.97 0.96 0.85 0.74 0.71 0.66 0.59 0.58 0.54
0.20 0.16 0.20 0.24 0.24 0.25 0.23 0.23 0.26 0.27 0.28 0.26 0.25 0.24 0.22 0.25 0.27 0.25 0.25 0.28 0.31 0.31 0.28 0.28 0.27 0.24 0.20 0.17 0.18 0.23 0.30 0.46 0.62 0.64 0.66 0.76 0.73 0.69 0.66 0.71 0.73 0.69 0.61
0.39 0.32 0.31 0.34 0.32 0.30 0.26 0.25 0.25 0.26 0.29 0.26 0.25 0.25 0.23 0.25 0.25 0.24 0.24 0.24 0.25 0.29 0.29 0.28 0.27 0.23 0.26 0.25 0.22 0.25 0.34 0.53 0.62 0.57 0.54 0.80 0.74 0.53 0.67 0.86 1.00 0.89 0.71
0.53 0.50 0.42 0.41 0.38 0.36 0.31 0.31 0.32 0.29 0.29 0.30 0.29 0.26 0.23 0.22 0.22 0.22 0.23 0.20 0.18 0.20 0.23 0.26 0.29 0.27 0.27 0.30 0.25 0.25 0.34 0.46 0.47 0.50 0.46 0.59 0.51 0.49 0.66 0.89 1.04 1.00 0.86
0.65 0.61 0.51 0.44 0.39 0.39 0.38 0.38 0.39 0.37 0.35 0.33 0.31 0.27 0.23 0.21 0.20 0.21 0.22 0.21 0.18 0.18 0.19 0.21 0.23 0.24 0.23 0.27 0.32 0.34 0.41 0.54 0.56 0.60 0.52 0.63 0.56 0.64 0.82 0.99 1.10 1.07 1.03
0.98 0.76 0.63 0.60 0.57 0.52 0.47 0.44 0.46 0.41 0.40 0.41 0.37 0.34 0.32 0.30 0.26 0.29 0.27 0.26 0.26 0.26 0.23 0.21 0.23 0.24 0.25 0.26 0.30 0.45 0.60 0.56 0.47 0.60 0.72 0.61 0.60 0.84 1.10 1.17 1.27 1.27 1.22
1.32 1.08 0.87 0.78 0.74 0.69 0.61 0.55 0.59 0.57 0.54 0.54 0.52 0.50 0.46 0.45 0.47 0.50 0.44 0.47 0.45 0.45 0.46 0.44 0.45 0.45 0.43 0.35 0.40 0.61 0.68 0.52 0.63 0.85 0.89 0.67 0.77 1.09 1.35 1.41 1.43 1.44 1.41
1.48 1.18 1.09 1.01 0.88 0.79 0.68 0.75 0.91 0.82 0.77 0.76 0.82 0.78 0.77 0.82 0.78 0.60 0.63 0.80 0.94 0.98 0.95 1.03 1.13 0.93 0.74 0.76 1.22 1.28 0.65 0.61 0.84 0.98 0.98 0.83 1.04 1.42 1.61 1.69 1.66 1.57 1.51
1.76 1.44 1.33 1.23 1.12 1.09 1.15 1.06 1.08 1.07 1.09 1.05 1.09 1.13 1.14 1.02 0.88 0.84 0.94 1.15 1.34 1.40 1.38 1.68 1.74 1.27 1.34 1.65 1.76 1.52 0.93 0.88 1.10 1.12 1.28 1.29 1.31 1.73 2.13 2.13 2.05 1.86 1.71
2.08 1.78 1.58 1.49 1.47 1.46 1.42 1.36 1.25 1.26 1.28 1.30 1.38 1.39 1.49 1.55 1.45 1.42 1.49 1.54 1.71 1.82 2.04 2.17 2.27 1.98 1.95 1.85 1.72 1.59 1.41 1.48 1.40 1.66 2.03 1.83 1.56 1.80 2.46 2.62 2.49 2.28 1.90
2.22 1.96 1.91 1.71 1.61 1.63 1.73 1.78 1.61 1.68 1.63 1.59 1.69 1.77 1.85 2.03 2.02 1.98 1.87 1.87 1.81 2.00 2.21 2.50 2.43 2.67 2.61 2.32 1.96 1.78 1.79 1.84 1.73 1.95 2.22 2.25 2.08 2.08 2.72 3.12 3.02 2.72 2.32
2.18 2.03 2.00 1.88 1.94 2.03 2.01 2.04 2.10 2.11 2.07 2.01 1.97 2.01 2.06 2.26 2.47 2.39 2.18 2.16 2.05 2.11 2.42 2.66 2.68 3.07 2.89 2.73 2.28 2.11 1.97 1.92 1.88 2.06 2.27 2.45 2.39 2.34 2.64 3.06 3.32 3.22 2.84
1.94 2.07 2.23 2.35 2.52 2.65 2.64 2.59 2.51 2.55 2.45 2.44 2.56 2.56 2.58 2.57 2.60 2.47 2.33 2.24 2.35 2.48 2.65 2.69 2.79 3.11 2.85 2.74 2.56 2.38 2.18 2.00 1.92 2.08 2.36 2.63 2.42 2.34 2.62 2.99 3.34 3.28 3.10
1.96 2.09 2.33 2.44 2.79 2.99 3.03 3.09 3.04 2.99 2.84 2.89 2.88 2.88 2.85 2.76 2.64 2.68 2.45 2.26 2.49 2.63 2.79 2.95 2.92 2.99 3.01 2.97 2.83 2.50 2.33 2.21 1.97 2.03 2.14 2.30 2.45 2.08 2.45 2.98 3.14 3.00 3.01
2.26 2.47 2.81 2.89 2.85 2.94 3.12 3.26 3.09 3.04 2.93 2.84 2.75 2.75 2.65 2.56 2.54 2.80 2.60 2.57 2.70 2.90 2.80 2.61 2.96 3.08 3.03 3.02 2.72 2.57 2.21 2.10 2.03 1.94 1.99 2.09 2.29 2.24 2.23 2.40 2.82 2.73 2.94
2.51 2.82 2.97 3.04 3.27 3.55 3.74 3.65 3.40 3.06 2.82 2.70 2.59 2.47 2.43 2.49 2.52 2.76 2.57 2.60 2.79 2.98 3.03 3.02 3.10 3.07 2.94 3.00 2.67 2.46 2.13 1.84 1.81 1.76 1.66 1.82 1.90 1.72 1.80 1.98 2.31 2.06 2.29
2.49 2.71 2.96 3.30 3.67 3.77 3.68 3.64 3.55 3.23 2.95 2.62 2.33 2.29 2.37 2.32 2.42 2.68 2.44 2.73 2.87 2.90 3.01 3.05 3.18 3.07 2.91 3.07 2.97 2.48 2.00 1.72 1.56 1.44 1.46 1.55 1.51 1.59 1.81 2.10 2.37 2.38 2.13
2.41 2.68 3.04 3.32 3.65 3.61 3.74 3.90 3.78 3.50 2.94 2.58 2.35 2.26 2.28 2.28 2.30 2.44 2.72 2.77 2.85 2.92 2.93 2.88 2.90 2.73 2.55 2.89 2.94 2.73 2.14 1.78 1.46 1.25 1.42 1.41 1.49 1.71 1.75 1.81 2.13 2.44 2.32
2.53 2.92 3.16 3.37 3.47 3.50 3.64 3.71 3.38 3.14 2.72 2.57 2.52 2.37 2.28 2.36 2.40 2.50 2.67 2.75 2.67 2.60 2.66 2.75 2.66 2.53 2.36 2.50 2.75 2.77 2.31 1.84 1.50 1.28 1.29 1.34 1.63 1.79 1.73 1.73 1.72 1.84 1.92
2.55 2.96 3.34 3.32 3.29 3.24 3.36 3.43 3.21 2.89 2.63 2.52 2.49 2.26 2.11 2.08 2.12 2.22 2.30 2.45 2.50 2.48 2.47 2.42 2.41 2.42 2.37 2.25 2.46 2.53 2.39 2.16 1.91 1.45 1.21 1.24 1.47 1.58 1.54 1.43 1.49 1.69 1.82
2.23 2.54 2.89 3.13 3.15 3.03 3.02 3.03 2.97 2.74 2.47 2.31 2.24 2.11 2.04 2.04 1.93 1.92 2.03 2.20 2.25 2.17 2.17 2.29 2.47 2.44 2.30 2.17 2.26 2.36 2.49 2.42 2.12 1.81 1.40 1.29 1.29 1.22 1.32 1.34 1.37 1.46 1.67
2.01 2.28 2.48 2.66 2.73 2.67 2.60 2.60 2.61 2.50 2.41 2.22 2.07 2.08 2.09 2.00 1.85 1.79 1.80 1.91 1.96 1.95 1.93 1.97 2.09 2.13 2.11 2.20 2.23 2.22 2.33 2.33 2.22 2.10 1.72 1.49 1.36 1.09 1.13 1.19 1.28 1.33 1.42